Phnom Penh, Cambodia

4:24 PM +07 on May 24, 2018 (GMT +0700)
Pochentong International

Weather History for VDPP - October, 2011

Change the Weather History Date:

Monday, October 24, 2011

  Actual Average Record
Temperature  
Mean Temperature 86 °F -  
Max Temperature 95 °F 84 °F 95 °F (2011)
Min Temperature 78 °F 75 °F 75 °F (2006)
Cooling Degree Days 22    
Growing Degree Days 36 (Base 50)    
Moisture  
Dew Point 73 °F    
Average Humidity 61    
Maximum Humidity 84    
Minimum Humidity 46    
Precipitation  
Precipitation 0.00 in - - ()
Sea Level Pressure  
Sea Level Pressure 29.76 in    
Wind  
Wind Speed 4 mph ()    
Max Wind Speed 10 mph    
Max Gust Speed -    
Visibility 6.0 miles    
Events Rain    
Averages and records for this station are not official NWS values.
T = Trace of Precipitation, MM = Missing Value Source: Averaged Metar Reports

Daily Weather History Graph

Daily Weather History Graph

Search for Another Location

Airport or City:

Astronomy

Oct. 24, 2011 Rise Set
Actual Time 5:50 AM +07 5:38 PM +07
Civil Twilight 5:29 AM +07 6:00 PM +07
Nautical Twilight 5:04 AM +07 6:24 PM +07
Astronomical Twilight 4:39 AM +07 6:49 PM +07
Moon 3:00 AM +07 3:22 PM +07
Length of Visible Light 12h 30m
Length of Day
11h 47m
Waning Crescent, 10% of the Moon is Illuminated
Oct 24
Waning Crescent
Oct 27
New
Nov 2
First Quarter
Nov 11
Full
Nov 18
Last Quarter

Hourly Weather History & Observations

Time (+07) Temp. Heat Index Dew Point Humidity Pressure Visibility Wind Dir Wind Speed Gust Speed Precip Events Conditions
6:00 AM 82.4 °F 88.2 °F 73.4 °F 74% 29.77 in 6.2 mi East 3.5 mph - N/A   Partly Cloudy
7:00 AM 81 °F - 77 °F 84% 29.80 in 6 mi Calm Calm - -   Partly Cloudy
7:00 AM 86.0 °F 95.1 °F 75.2 °F 70% 29.80 in 6.2 mi East 3.5 mph - N/A   Partly Cloudy
7:30 AM 86.0 °F 93.4 °F 73.4 °F 66% 29.80 in 6.2 mi East 3.5 mph - N/A   Partly Cloudy
8:00 AM 86.0 °F 93.4 °F 73.4 °F 66% 29.80 in 6.2 mi ESE 5.8 mph - N/A   Mostly Cloudy
8:30 AM 89.6 °F 98.2 °F 73.4 °F 59% 29.80 in 6.2 mi SE 6.9 mph - N/A   Scattered Clouds
9:00 AM 87.8 °F 95.6 °F 73.4 °F 62% 29.80 in 6.2 mi SSE 5.8 mph - N/A   Scattered Clouds
9:30 AM 87.8 °F 95.6 °F 73.4 °F 62% 29.83 in 6.2 mi SSE 8.1 mph - N/A   Scattered Clouds
10:00 AM 87.8 °F 95.6 °F 73.4 °F 62% 29.83 in 6.2 mi SSE 8.1 mph - N/A   Scattered Clouds
10:30 AM 89.6 °F 94.7 °F 69.8 °F 52% 29.80 in 6.2 mi South 5.8 mph - N/A   Scattered Clouds
11:00 AM 91.4 °F 96.8 °F 69.8 °F 49% 29.80 in 6.2 mi South 10.4 mph - N/A   Scattered Clouds
11:30 AM 91.4 °F 98.4 °F 71.6 °F 52% 29.80 in 6.2 mi South 9.2 mph - N/A   Scattered Clouds
12:00 PM 95.0 °F 103.2 °F 71.6 °F 47% 29.77 in 6.2 mi SSE 6.9 mph - N/A   Scattered Clouds
12:30 PM 93.2 °F 100.5 °F 71.6 °F 49% 29.77 in 6.2 mi South 5.8 mph - N/A   Partly Cloudy
1:00 PM 93.2 °F 98.8 °F 69.8 °F 46% 29.74 in 6.2 mi South 5.8 mph - N/A   Partly Cloudy
1:30 PM 91.4 °F 102.5 °F 75.2 °F 59% 29.74 in 6.2 mi North 3.5 mph - N/A   Partly Cloudy
2:00 PM 89.6 °F 98.2 °F 73.4 °F 59% 29.71 in 6.2 mi NNE 5.8 mph - N/A   Scattered Clouds
2:30 PM 91.4 °F 100.1 °F 73.4 °F 55% 29.71 in 6.2 mi NNE 3.5 mph - N/A   Scattered Clouds
3:00 PM 91.4 °F 98.4 °F 71.6 °F 52% 29.71 in 6.2 mi SSE 4.6 mph - N/A   Scattered Clouds
3:30 PM 89.6 °F 94.7 °F 69.8 °F 52% 29.71 in 6.2 mi South 10.4 mph - N/A Rain Light Rain
4:00 PM 89.6 °F 98.2 °F 73.4 °F 59% 29.71 in 6.2 mi West 5.8 mph - N/A   Scattered Clouds
4:30 PM 89.6 °F 98.2 °F 73.4 °F 59% 29.71 in 6.2 mi South 4.6 mph - N/A   Scattered Clouds
5:00 PM 89.6 °F 98.2 °F 73.4 °F 59% 29.71 in 6.2 mi NW 4.6 mph - N/A   Scattered Clouds
5:30 PM 87.8 °F 97.6 °F 75.2 °F 66% 29.71 in 5.6 mi WNW 3.5 mph - N/A Rain Light Rain
6:00 PM 86.0 °F 95.1 °F 75.2 °F 70% 29.71 in 5.6 mi NNW 5.8 mph - N/A Rain Light Rain
6:30 PM 86.0 °F 91.8 °F 71.6 °F 62% 29.74 in 5.6 mi NW 2.3 mph - N/A   Scattered Clouds
7:00 PM 87.8 °F 93.8 °F 71.6 °F 58% 29.74 in 5.6 mi WNW 2.3 mph - N/A   Scattered Clouds
7:30 PM 86.0 °F 93.4 °F 73.4 °F 66% 29.74 in 5.6 mi North 1.2 mph - N/A   Scattered Clouds
8:00 PM 86.0 °F 93.4 °F 73.4 °F 66% 29.77 in 5.6 mi WNW 1.2 mph - N/A   Scattered Clouds
8:30 PM 86.0 °F 93.4 °F 73.4 °F 66% 29.74 in 5.6 mi North 1.2 mph - N/A   Scattered Clouds
9:00 PM 86.0 °F 93.4 °F 73.4 °F 66% 29.77 in 5.6 mi Calm Calm - N/A   Scattered Clouds
9:30 PM 86.0 °F 93.4 °F 73.4 °F 66% 29.77 in 5.6 mi Calm Calm - N/A   Scattered Clouds
10:00 PM 86.0 °F 95.1 °F 75.2 °F 70% 29.77 in 5.6 mi West 2.3 mph - N/A   Scattered Clouds
10:30 PM 86.0 °F 95.1 °F 75.2 °F 70% 29.74 in 5.6 mi WNW 3.5 mph - N/A   Scattered Clouds
11:00 PM 86.0 °F 95.1 °F 75.2 °F 70% 29.77 in 5.6 mi Calm Calm - N/A   Scattered Clouds